Location: Knobs
(40.8333°S, 175.2333°E)
Time: 02:25:06
(UTC+00:00)

Spot 4 Rocket - Pass Details

Date: 12 June 2024
Orbit: 771 x 777 km, 98.8° (Epoch: 22 July)

Event Time Altitude Azimuth Distance (km) Brightness Sun altitude
Rises 17:27:24 0° 11° (NNE) 3,240 7.5 -24.4°
Reaches altitude 10° 17:29:42 10° 10° (N) 2,322 6.7 -24.0°
Maximum altitude 17:34:49 76° 283° (WNW) 809 3.9 -23.0°
Enters shadow 17:36:55 37° 204° (SSW) 1,209 4.7 -22.6°
